Location: Newark
(48.9886°N, 1.2358°E)
Time: 20:51:56
(UTC+00:00)

N. Korean satellite - Visible Passes

Search period start: 17 October 2019 00:00
Search period end: 27 October 2019 00:00
Orbit: 455 x 508 km, 97.2° (Epoch: 16 October)

Date Brightness Start Highest point End Pass type
(mag) Time Alt. Az. Time Alt. Az. Time Alt. Az.
18 Oct 7.8 05:38:53 10° NNE 05:42:22 48° E 05:45:54 10° S visible
18 Oct 9.8 17:52:33 10° SW 17:55:02 19° W 17:57:33 10° NW visible
19 Oct 9.2 05:13:56 10° NE 05:16:58 25° E 05:20:01 10° SSE visible
20 Oct 10.2 04:49:33 10° ENE 04:51:29 14° E 04:53:24 10° ESE visible
21 Oct 10.3 18:11:16 10° WSW 18:12:41 12° W 18:14:06 10° WNW visible
22 Oct 8.3 05:31:06 10° NNE 05:34:33 39° E 05:38:00 10° SSE visible
22 Oct 9.4 17:44:22 10° SSW 17:47:08 23° W 17:49:57 10° NW visible
23 Oct 9.5 05:06:16 10° NE 05:09:06 21° E 05:11:57 10° SE visible
23 Oct 7.9 17:18:24 10° S 17:21:41 44° W 17:25:04 10° NNW visible
24 Oct 10.4 04:42:15 10° ENE 04:43:34 12° E 04:44:54 10° ESE visible
25 Oct 7.2 05:48:25 10° NNE 05:52:03 65° E 05:55:43 10° S visible
25 Oct 10.0 18:02:42 10° SW 18:04:44 15° W 18:06:46 10° NW visible
26 Oct 8.7 05:23:19 10° NNE 05:26:40 33° E 05:30:01 10° SSE visible
26 Oct 9.0 17:36:13 10° SSW 17:39:12 27° W 17:42:17 10° NW visible
